Location: Morlupo
(42.1333°N, 12.5000°E)
Time: 16:42:29
(UTC+00:00)

ARIANE 5 R/B - Pass Details

Date: 18 September 2020
Orbit: 620 x 657 km, 98.2° (Epoch: 09 October)

Event Time Altitude Azimuth Distance (km) Brightness Sun altitude
Exits shadow 19:37:43 23° 19° (NNE) 1,333 4.3 -26.4°
Drops below altitude 10° 19:39:38 10° 3° (N) 2,002 5.5 -26.7°
Sets 19:41:56 0° 356° (N) 2,910 6.5 -27.0°
